Location: Unspecified
(49.8670°N, 0.0000°E)
Time: 04:28:50
(UTC+00:00)

Vanguard 1 - Pass Details

Date: 20 June 2019
Orbit: 655 x 3829 km, 34.2° (Epoch: 20 August)

Event Time Altitude Azimuth Distance (km) Brightness Sun altitude
Rises 07:31:48 0° 262° (W) 5,288 13.3 32.1°
Reaches altitude 10° 07:37:06 10° 247° (WSW) 3,656 12.6 32.9°
Maximum altitude 07:42:29 18° 208° (SSW) 2,475 12.1 33.8°
Drops below altitude 10° 07:46:30 10° 167° (SSE) 2,596 12.5 34.4°
Sets 07:49:24 0° 146° (SSE) 3,270 13.2 34.9°
